Time,TemperatureF,DewpointF,PressureIn,WindDirection,WindDirectionDegrees,WindSpeedMPH,WindSpeedGustMPH,Humidity,HourlyPrecipIn,Conditions,Clouds,dailyrainin,SoftwareType,DateUTC
2013-07-28 00:00:00,78.9,75.1,29.98,SSE,151,0.0,0.0,88,0.00,,,0.02,VWS V14.00,2013-07-28 04:00:00,
2013-07-28 00:01:00,78.3,75.1,29.97,SSE,150,0.0,0.0,90,0.00,,,0.02,VWS V14.00,2013-07-28 04:01:00,
2013-07-28 00:02:00,78.3,75.1,29.97,SSE,150,0.0,0.0,90,0.00,,,0.00,VWS V14.00,2013-07-28 04:02:00,
2013-07-28 00:04:00,78.3,75.1,29.97,SSE,151,0.0,0.0,90,0.00,,,0.00,VWS V14.00,2013-07-28 04:04:00,
2013-07-28 00:09:00,78.1,74.9,29.97,SSE,151,0.0,0.0,90,0.00,,,0.00,VWS V14.00,2013-07-28 04:09:00,
2013-07-28 00:14:00,77.9,74.7,29.97,SSE,151,0.0,0.0,90,0.00,,,0.00,VWS V14.00,2013-07-28 04:14:00,
2013-07-28 00:19:00,77.8,74.6,29.97,SSE,150,0.0,0.0,90,0.00,,,0.00,VWS V14.00,2013-07-28 04:19:00,
2013-07-28 00:24:00,77.6,74.4,29.97,SSE,151,0.0,0.0,90,0.00,,,0.00,VWS V14.00,2013-07-28 04:24:00,
2013-07-28 00:29:00,77.6,74.4,29.97,SSE,151,0.0,0.0,90,0.00,,,0.00,VWS V14.00,2013-07-28 04:29:00,
2013-07-28 00:30:00,77.6,74.4,29.97,SSE,150,0.0,0.0,90,0.00,,,0.00,VWS V14.00,2013-07-28 04:30:00,
2013-07-28 00:34:00,77.6,74.8,29.97,SSE,151,0.0,0.0,91,0.00,,,0.00,VWS V14.00,2013-07-28 04:34:00,
2013-07-28 00:39:00,77.6,74.8,29.97,SSE,150,0.0,0.0,91,0.00,,,0.00,VWS V14.00,2013-07-28 04:39:00,
2013-07-28 00:45:00,77.5,74.7,29.97,SSE,151,0.0,0.0,91,0.00,,,0.00,VWS V14.00,2013-07-28 04:45:00,
2013-07-28 00:50:00,77.4,74.6,29.96,SSE,151,0.0,0.0,91,0.00,,,0.00,VWS V14.00,2013-07-28 04:50:00,
2013-07-28 00:55:00,77.3,74.5,29.97,SSE,151,0.0,0.0,91,0.00,,,0.00,VWS V14.00,2013-07-28 04:55:00,
2013-07-28 01:00:00,77.4,74.6,29.96,SSE,151,0.0,0.0,91,0.00,,,0.00,VWS V14.00,2013-07-28 05:00:00,
2013-07-28 01:05:00,77.3,74.5,29.96,SSE,151,0.0,0.0,91,0.00,,,0.00,VWS V14.00,2013-07-28 05:05:00,
2013-07-28 01:10:00,77.2,74.4,29.96,SSE,151,0.0,0.0,91,0.00,,,0.00,VWS V14.00,2013-07-28 05:10:00,
2013-07-28 01:15:00,77.0,74.2,29.96,SSE,151,0.0,0.0,91,0.00,,,0.00,VWS V14.00,2013-07-28 05:15:00,
2013-07-28 01:21:00,76.9,74.1,29.96,SSE,151,0.0,0.0,91,0.00,,,0.00,VWS V14.00,2013-07-28 05:21:00,
2013-07-28 01:26:00,76.7,73.9,29.96,SSE,151,0.0,0.0,91,0.00,,,0.00,VWS V14.00,2013-07-28 05:26:00,
2013-07-28 01:30:00,76.7,74.2,29.96,SSE,150,0.0,0.0,92,0.00,,,0.00,VWS V14.00,2013-07-28 05:30:00,
2013-07-28 01:31:00,76.7,74.2,29.96,SSE,151,0.0,0.0,92,0.00,,,0.00,VWS V14.00,2013-07-28 05:31:00,
2013-07-28 01:36:00,76.6,74.1,29.96,SSE,151,0.0,0.0,92,0.00,,,0.00,VWS V14.00,2013-07-28 05:36:00,
2013-07-28 01:41:00,76.4,73.9,29.96,SSE,151,0.0,0.0,92,0.00,,,0.00,VWS V14.00,2013-07-28 05:41:00,
2013-07-28 01:46:00,76.3,73.8,29.96,SSE,151,0.0,0.0,92,0.00,,,0.00,VWS V14.00,2013-07-28 05:46:00,
2013-07-28 01:51:00,76.3,73.8,29.96,SSE,151,0.0,0.0,92,0.00,,,0.00,VWS V14.00,2013-07-28 05:51:00,
2013-07-28 01:56:00,76.3,73.8,29.95,SSE,151,0.0,0.0,92,0.00,,,0.00,VWS V14.00,2013-07-28 05:56:00,
2013-07-28 02:00:00,76.2,73.7,29.95,SSE,151,0.0,0.0,92,0.00,,,0.00,VWS V14.00,2013-07-28 06:00:00,
2013-07-28 02:01:00,76.2,73.7,29.95,SSE,150,0.0,0.0,92,0.00,,,0.00,VWS V14.00,2013-07-28 06:01:00,
2013-07-28 02:07:00,76.1,73.6,29.95,SSE,151,0.0,0.0,92,0.00,,,0.00,VWS V14.00,2013-07-28 06:07:00,
2013-07-28 02:12:00,75.9,73.4,29.95,SSE,150,0.0,0.0,92,0.00,,,0.00,VWS V14.00,2013-07-28 06:12:00,
2013-07-28 02:17:00,75.7,73.2,29.95,SSE,150,0.0,0.0,92,0.00,,,0.00,VWS V14.00,2013-07-28 06:17:00,
2013-07-28 02:22:00,75.7,73.2,29.95,SSE,151,0.0,0.0,92,0.00,,,0.00,VWS V14.00,2013-07-28 06:22:00,
2013-07-28 02:27:00,75.5,73.0,29.95,SSE,150,0.0,0.0,92,0.00,,,0.00,VWS V14.00,2013-07-28 06:27:00,
2013-07-28 02:30:00,76.7,74.2,29.96,SSE,150,0.0,0.0,92,0.00,,,0.00,VWS V14.00,2013-07-28 06:30:00,
2013-07-28 02:32:00,75.4,72.9,29.94,SSE,151,0.0,0.0,92,0.00,,,0.00,VWS V14.00,2013-07-28 06:32:00,
2013-07-28 02:38:00,75.4,73.2,29.94,SSE,151,0.0,0.0,93,0.00,,,0.00,VWS V14.00,2013-07-28 06:38:00,
2013-07-28 02:43:00,75.4,73.2,29.94,SSE,151,0.0,0.0,93,0.00,,,0.00,VWS V14.00,2013-07-28 06:43:00,
2013-07-28 02:48:00,75.3,73.1,29.94,SSE,150,0.0,0.0,93,0.00,,,0.00,VWS V14.00,2013-07-28 06:48:00,
2013-07-28 02:53:00,75.2,73.0,29.94,SSE,150,0.0,0.0,93,0.00,,,0.00,VWS V14.00,2013-07-28 06:53:00,
2013-07-28 02:58:00,75.1,72.9,29.94,SSE,150,0.0,0.0,93,0.00,,,0.00,VWS V14.00,2013-07-28 06:58:00,
2013-07-28 03:00:00,75.1,72.9,29.94,SSE,150,0.0,0.0,93,0.00,,,0.00,VWS V14.00,2013-07-28 07:00:00,
2013-07-28 03:04:00,75.1,72.9,29.94,SSE,151,0.0,0.0,93,0.00,,,0.00,VWS V14.00,2013-07-28 07:04:00,
2013-07-28 03:09:00,75.0,72.8,29.94,SSE,151,0.0,0.0,93,0.00,,,0.00,VWS V14.00,2013-07-28 07:09:00,
2013-07-28 03:14:00,75.0,72.8,29.94,SSE,150,0.0,0.0,93,0.00,,,0.00,VWS V14.00,2013-07-28 07:14:00,
2013-07-28 03:19:00,74.9,72.7,29.94,SSE,150,0.0,0.0,93,0.00,,,0.00,VWS V14.00,2013-07-28 07:19:00,
2013-07-28 03:24:00,74.7,72.6,29.94,SSE,151,0.0,0.0,93,0.00,,,0.00,VWS V14.00,2013-07-28 07:24:00,
2013-07-28 03:29:00,74.5,72.3,29.94,SSE,150,0.0,0.0,93,0.00,,,0.00,VWS V14.00,2013-07-28 07:29:00,
2013-07-28 03:30:00,74.4,72.2,29.94,SSE,151,0.0,0.0,93,0.00,,,0.00,VWS V14.00,2013-07-28 07:30:00,
2013-07-28 03:34:00,74.4,72.2,29.94,SSE,151,0.0,0.0,93,0.00,,,0.00,VWS V14.00,2013-07-28 07:34:00,
2013-07-28 03:39:00,74.4,72.2,29.94,SSE,151,0.0,0.0,93,0.00,,,0.00,VWS V14.00,2013-07-28 07:39:00,
2013-07-28 03:44:00,74.4,72.2,29.94,SSE,151,0.0,0.0,93,0.00,,,0.00,VWS V14.00,2013-07-28 07:44:00,
2013-07-28 03:49:00,74.5,72.7,29.94,SSE,150,0.0,0.0,94,0.00,,,0.00,VWS V14.00,2013-07-28 07:49:00,
2013-07-28 03:54:00,74.4,72.6,29.94,SSE,151,0.0,0.0,94,0.00,,,0.00,VWS V14.00,2013-07-28 07:54:00,
2013-07-28 04:00:00,74.3,72.5,29.94,SSE,150,0.0,0.0,94,0.00,,,0.00,VWS V14.00,2013-07-28 08:00:00,
2013-07-28 04:05:00,74.3,72.5,29.94,SSE,151,0.0,0.0,94,0.00,,,0.00,VWS V14.00,2013-07-28 08:05:00,
2013-07-28 04:10:00,74.4,72.6,29.94,SSE,151,0.0,0.0,94,0.00,,,0.00,VWS V14.00,2013-07-28 08:10:00,
2013-07-28 04:15:00,74.5,72.7,29.94,SSE,151,0.0,0.0,94,0.00,,,0.00,VWS V14.00,2013-07-28 08:15:00,
2013-07-28 04:20:00,74.4,72.6,29.94,SSE,151,0.0,0.0,94,0.00,,,0.00,VWS V14.00,2013-07-28 08:20:00,
2013-07-28 04:25:00,74.3,72.5,29.94,SSE,151,0.0,0.0,94,0.00,,,0.00,VWS V14.00,2013-07-28 08:25:00,
2013-07-28 04:30:00,74.1,72.3,29.94,SSE,151,0.0,0.0,94,0.00,,,0.00,VWS V14.00,2013-07-28 08:30:00,
2013-07-28 04:35:00,74.0,72.2,29.93,SSE,150,0.0,0.0,94,0.00,,,0.00,VWS V14.00,2013-07-28 08:35:00,
2013-07-28 04:41:00,73.9,72.1,29.93,SSE,150,0.0,0.0,94,0.00,,,0.00,VWS V14.00,2013-07-28 08:41:00,
2013-07-28 04:46:00,74.0,72.2,29.94,SSE,150,0.0,0.0,94,0.00,,,0.00,VWS V14.00,2013-07-28 08:46:00,
2013-07-28 04:51:00,73.9,72.1,29.94,SSE,151,0.0,0.0,94,0.00,,,0.00,VWS V14.00,2013-07-28 08:51:00,
2013-07-28 04:56:00,73.8,72.0,29.94,SSE,150,0.0,0.0,94,0.00,,,0.00,VWS V14.00,2013-07-28 08:56:00,
2013-07-28 05:00:00,73.7,71.9,29.93,SSE,150,0.0,0.0,94,0.00,,,0.00,VWS V14.00,2013-07-28 09:00:00,
2013-07-28 05:01:00,73.7,71.9,29.93,SSE,151,0.0,0.0,94,0.00,,,0.00,VWS V14.00,2013-07-28 09:01:00,
2013-07-28 05:06:00,73.8,72.0,29.93,SSE,151,0.0,0.0,94,0.00,,,0.00,VWS V14.00,2013-07-28 09:06:00,
2013-07-28 05:11:00,73.8,72.0,29.93,SSE,150,0.0,0.0,94,0.00,,,0.00,VWS V14.00,2013-07-28 09:11:00,
2013-07-28 05:16:00,73.8,72.0,29.93,SSE,151,0.0,0.0,94,0.00,,,0.00,VWS V14.00,2013-07-28 09:16:00,
2013-07-28 05:22:00,73.7,71.9,29.93,SSE,151,0.0,0.0,94,0.00,,,0.00,VWS V14.00,2013-07-28 09:22:00,
2013-07-28 05:27:00,73.7,71.9,29.94,SSE,151,0.0,0.0,94,0.00,,,0.00,VWS V14.00,2013-07-28 09:27:00,
2013-07-28 05:30:00,73.5,71.7,29.94,SSE,150,0.0,0.0,94,0.00,,,0.00,VWS V14.00,2013-07-28 09:30:00,
2013-07-28 05:32:00,73.5,71.7,29.94,SSE,151,0.0,0.0,94,0.00,,,0.00,VWS V14.00,2013-07-28 09:32:00,
2013-07-28 05:37:00,73.6,71.8,29.94,SSE,151,0.0,0.0,94,0.00,,,0.00,VWS V14.00,2013-07-28 09:37:00,
2013-07-28 05:42:00,73.5,71.7,29.94,SSE,150,0.0,0.0,94,0.00,,,0.00,VWS V14.00,2013-07-28 09:42:00,
2013-07-28 05:47:00,73.6,71.8,29.94,SSE,150,0.0,0.0,94,0.00,,,0.00,VWS V14.00,2013-07-28 09:47:00,
2013-07-28 05:52:00,73.5,71.7,29.95,SSE,150,0.0,0.0,94,0.00,,,0.00,VWS V14.00,2013-07-28 09:52:00,
2013-07-28 05:57:00,73.5,71.7,29.95,SSE,151,0.0,0.0,94,0.00,,,0.00,VWS V14.00,2013-07-28 09:57:00,
2013-07-28 06:00:00,73.5,71.7,29.95,SSE,151,0.0,0.0,94,0.00,,,0.00,VWS V14.00,2013-07-28 10:00:00,
2013-07-28 06:02:00,73.5,71.7,29.95,SSE,151,0.0,0.0,94,0.00,,,0.00,VWS V14.00,2013-07-28 10:02:00,
2013-07-28 06:08:00,73.3,71.5,29.95,SSE,151,0.0,0.0,94,0.00,,,0.00,VWS V14.00,2013-07-28 10:08:00,
2013-07-28 06:13:00,73.3,71.5,29.95,SSE,150,0.0,0.0,94,0.00,,,0.00,VWS V14.00,2013-07-28 10:13:00,
2013-07-28 06:18:00,73.4,71.6,29.95,SSE,151,0.0,0.0,94,0.00,,,0.00,VWS V14.00,2013-07-28 10:18:00,
2013-07-28 06:23:00,73.6,72.1,29.95,SSE,151,0.0,0.0,95,0.00,,,0.00,VWS V14.00,2013-07-28 10:23:00,
2013-07-28 06:28:00,73.7,72.2,29.95,SSE,150,0.0,0.0,95,0.00,,,0.00,VWS V14.00,2013-07-28 10:28:00,
2013-07-28 06:30:00,73.8,72.3,29.96,SSE,151,0.0,0.0,95,0.00,,,0.00,VWS V14.00,2013-07-28 10:30:00,
2013-07-28 06:33:00,73.8,72.3,29.96,SSE,151,0.0,0.0,95,0.00,,,0.00,VWS V14.00,2013-07-28 10:33:00,
2013-07-28 06:38:00,73.9,72.4,29.96,SSE,151,0.0,0.0,95,0.00,,,0.00,VWS V14.00,2013-07-28 10:38:00,
2013-07-28 06:43:00,73.8,72.3,29.96,SSE,151,0.0,0.0,95,0.00,,,0.00,VWS V14.00,2013-07-28 10:43:00,
2013-07-28 06:48:00,73.8,72.3,29.97,SSE,151,0.0,0.0,95,0.00,,,0.00,VWS V14.00,2013-07-28 10:48:00,
2013-07-28 06:54:00,73.7,72.2,29.97,SSE,150,0.0,0.0,95,0.00,,,0.00,VWS V14.00,2013-07-28 10:54:00,
2013-07-28 06:59:00,73.7,72.2,29.96,SSE,151,0.0,0.0,95,0.00,,,0.00,VWS V14.00,2013-07-28 10:59:00,
2013-07-28 07:00:00,73.8,72.3,29.96,SSE,151,0.0,0.0,95,0.00,,,0.00,VWS V14.00,2013-07-28 11:00:00,
2013-07-28 07:04:00,73.8,72.3,29.96,SSE,150,0.0,0.0,95,0.00,,,0.00,VWS V14.00,2013-07-28 11:04:00,
2013-07-28 07:09:00,73.9,72.4,29.97,SSE,151,0.0,0.0,95,0.00,,,0.00,VWS V14.00,2013-07-28 11:09:00,
2013-07-28 07:14:00,74.0,72.5,29.97,SSE,151,0.0,0.0,95,0.00,,,0.00,VWS V14.00,2013-07-28 11:14:00,
2013-07-28 07:19:00,74.0,72.5,29.97,SSE,150,0.0,0.0,95,0.00,,,0.00,VWS V14.00,2013-07-28 11:19:00,
2013-07-28 07:24:00,74.1,72.6,29.97,SSE,151,0.0,0.0,95,0.00,,,0.00,VWS V14.00,2013-07-28 11:24:00,
2013-07-28 07:29:00,74.4,72.9,29.97,SSE,151,0.0,0.0,95,0.00,,,0.00,VWS V14.00,2013-07-28 11:29:00,
2013-07-28 07:30:00,74.5,73.0,29.97,SSE,151,0.0,0.0,95,0.00,,,0.00,VWS V14.00,2013-07-28 11:30:00,
2013-07-28 07:34:00,74.6,73.1,29.97,SSE,150,0.0,0.0,95,0.00,,,0.00,VWS V14.00,2013-07-28 11:34:00,
2013-07-28 07:39:00,74.8,73.3,29.98,SSE,150,0.0,0.0,95,0.00,,,0.00,VWS V14.00,2013-07-28 11:39:00,
2013-07-28 07:45:00,75.0,73.5,29.98,SSE,151,0.0,0.0,95,0.00,,,0.00,VWS V14.00,2013-07-28 11:45:00,
2013-07-28 07:50:00,75.1,73.6,29.98,SSE,151,0.0,0.0,95,0.00,,,0.00,VWS V14.00,2013-07-28 11:50:00,
2013-07-28 07:55:00,75.5,74.0,29.98,SSE,150,0.0,0.0,95,0.00,,,0.00,VWS V14.00,2013-07-28 11:55:00,
2013-07-28 08:00:00,75.8,74.3,29.98,SSE,151,0.0,0.0,95,0.00,,,0.00,VWS V14.00,2013-07-28 12:00:00,
2013-07-28 08:05:00,76.2,74.7,29.98,SSE,151,0.0,0.0,95,0.00,,,0.00,VWS V14.00,2013-07-28 12:05:00,
2013-07-28 08:10:00,76.5,75.0,29.98,SSE,150,0.0,0.0,95,0.00,,,0.00,VWS V14.00,2013-07-28 12:10:00,
2013-07-28 08:15:00,76.8,75.3,29.99,SSE,151,0.0,0.0,95,0.00,,,0.00,VWS V14.00,2013-07-28 12:15:00,
2013-07-28 08:21:00,77.0,75.5,29.99,SSE,151,0.0,0.0,95,0.00,,,0.00,VWS V14.00,2013-07-28 12:21:00,
2013-07-28 08:26:00,77.1,75.6,29.98,SSE,150,0.0,0.0,95,0.00,,,0.00,VWS V14.00,2013-07-28 12:26:00,
2013-07-28 08:30:00,77.3,75.8,29.98,SSE,151,0.0,0.0,95,0.00,,,0.00,VWS V14.00,2013-07-28 12:30:00,
2013-07-28 08:31:00,77.2,75.7,29.98,SSE,151,0.0,0.0,95,0.00,,,0.00,VWS V14.00,2013-07-28 12:31:00,
2013-07-28 08:36:00,77.3,75.8,29.99,SSE,151,0.0,0.0,95,0.00,,,0.00,VWS V14.00,2013-07-28 12:36:00,
2013-07-28 08:41:00,77.5,76.0,29.99,SSE,151,0.0,0.0,95,0.00,,,0.00,VWS V14.00,2013-07-28 12:41:00,
2013-07-28 08:46:00,77.6,76.1,29.99,SSE,150,0.0,0.0,95,0.00,,,0.00,VWS V14.00,2013-07-28 12:46:00,
2013-07-28 08:51:00,77.9,76.4,29.99,South,191,0.0,1.0,95,0.00,,,0.00,VWS V14.00,2013-07-28 12:51:00,
2013-07-28 08:56:00,78.1,76.6,29.99,South,191,0.0,1.0,95,0.00,,,0.00,VWS V14.00,2013-07-28 12:56:00,
2013-07-28 09:00:00,78.5,76.9,30.00,South,191,0.0,1.0,95,0.00,,,0.00,VWS V14.00,2013-07-28 13:00:00,
2013-07-28 09:02:00,78.5,76.9,30.00,South,191,0.0,1.0,95,0.00,,,0.00,VWS V14.00,2013-07-28 13:02:00,
2013-07-28 09:07:00,78.9,77.0,30.00,South,191,0.0,0.0,94,0.00,,,0.00,VWS V14.00,2013-07-28 13:07:00,
2013-07-28 09:13:00,79.2,77.3,30.00,South,191,0.0,0.0,94,0.00,,,0.00,VWS V14.00,2013-07-28 13:13:00,
2013-07-28 09:18:00,79.5,77.3,30.00,SSW,198,0.0,0.0,93,0.00,,,0.00,VWS V14.00,2013-07-28 13:18:00,
2013-07-28 09:23:00,80.0,77.5,29.99,SW,217,0.0,1.0,92,0.00,,,0.00,VWS V14.00,2013-07-28 13:23:00,
2013-07-28 09:28:00,80.3,77.8,30.00,South,184,0.0,1.0,92,0.00,,,0.00,VWS V14.00,2013-07-28 13:28:00,
2013-07-28 09:30:00,80.8,77.6,30.00,South,183,0.0,1.0,90,0.00,,,0.00,VWS V14.00,2013-07-28 13:30:00,
2013-07-28 09:33:00,80.8,77.6,30.00,South,184,0.0,0.0,90,0.00,,,0.00,VWS V14.00,2013-07-28 13:33:00,
2013-07-28 09:38:00,81.1,77.2,30.00,South,185,0.0,0.0,88,0.00,,,0.00,VWS V14.00,2013-07-28 13:38:00,
2013-07-28 09:43:00,81.6,77.7,30.00,South,185,0.0,0.0,88,0.00,,,0.00,VWS V14.00,2013-07-28 13:43:00,
2013-07-28 09:48:00,81.9,77.3,30.00,ESE,115,0.0,1.0,86,0.00,,,0.00,VWS V14.00,2013-07-28 13:48:00,
2013-07-28 09:53:00,82.1,77.2,30.00,SW,223,1.0,1.0,85,0.00,,,0.00,VWS V14.00,2013-07-28 13:53:00,
2013-07-28 09:58:00,82.5,77.2,30.00,SSW,199,0.0,3.0,84,0.00,,,0.00,VWS V14.00,2013-07-28 13:58:00,
2013-07-28 10:00:00,78.5,76.9,30.00,South,191,0.0,1.0,95,0.00,,,0.00,VWS V14.00,2013-07-28 14:00:00,
2013-07-28 10:03:00,82.8,77.1,30.00,SSW,205,0.0,0.0,83,0.00,,,0.00,VWS V14.00,2013-07-28 14:03:00,
2013-07-28 10:08:00,83.1,77.0,30.00,SSW,205,0.0,1.0,82,0.00,,,0.00,VWS V14.00,2013-07-28 14:08:00,
2013-07-28 10:14:00,83.4,77.0,30.00,SSW,212,0.0,1.0,81,0.00,,,0.00,VWS V14.00,2013-07-28 14:14:00,
2013-07-28 10:19:00,83.4,76.6,30.00,SSW,211,0.0,1.0,80,0.00,,,0.00,VWS V14.00,2013-07-28 14:19:00,
2013-07-28 10:24:00,83.4,76.2,30.01,SSW,192,0.0,1.0,79,0.00,,,0.00,VWS V14.00,2013-07-28 14:24:00,
2013-07-28 10:29:00,83.6,76.4,30.00,South,191,0.0,1.0,79,0.00,,,0.00,VWS V14.00,2013-07-28 14:29:00,
2013-07-28 10:30:00,80.8,77.6,30.00,South,183,0.0,1.0,90,0.00,,,0.00,VWS V14.00,2013-07-28 14:30:00,
2013-07-28 10:34:00,83.6,75.6,30.01,SSW,200,0.0,3.0,77,0.00,,,0.00,VWS V14.00,2013-07-28 14:34:00,
2013-07-28 10:39:00,83.9,75.5,30.01,SSW,200,0.0,3.0,76,0.00,,,0.00,VWS V14.00,2013-07-28 14:39:00,
2013-07-28 10:44:00,84.2,75.8,30.01,SSW,200,0.0,3.0,76,0.00,,,0.00,VWS V14.00,2013-07-28 14:44:00,
2013-07-28 10:49:00,84.8,76.4,30.01,SSW,200,0.0,3.0,76,0.00,,,0.00,VWS V14.00,2013-07-28 14:49:00,
2013-07-28 10:54:00,84.8,75.2,30.01,SW,218,0.0,4.0,73,0.00,,,0.00,VWS V14.00,2013-07-28 14:54:00,
2013-07-28 11:00:00,84.6,75.0,30.01,South,190,0.0,4.0,73,0.00,,,0.00,VWS V14.00,2013-07-28 15:00:00,
2013-07-28 11:05:00,84.7,74.7,30.01,West,264,0.0,0.0,72,0.00,,,0.00,VWS V14.00,2013-07-28 15:05:00,
2013-07-28 11:10:00,85.1,75.1,30.01,WNW,299,0.0,1.0,72,0.00,,,0.00,VWS V14.00,2013-07-28 15:10:00,
2013-07-28 11:15:00,85.5,75.4,30.01,South,178,0.0,1.0,72,0.00,,,0.00,VWS V14.00,2013-07-28 15:15:00,
2013-07-28 11:20:00,86.3,75.8,30.01,NNE,19,0.0,3.0,71,0.00,,,0.00,VWS V14.00,2013-07-28 15:20:00,
2013-07-28 11:25:00,86.7,75.8,30.01,West,264,0.0,3.0,70,0.00,,,0.00,VWS V14.00,2013-07-28 15:25:00,
2013-07-28 11:30:00,87.1,76.1,30.01,South,183,0.0,3.0,70,0.00,,,0.00,VWS V14.00,2013-07-28 15:30:00,
2013-07-28 11:35:00,87.8,75.9,30.01,South,183,0.0,1.0,68,0.00,,,0.00,VWS V14.00,2013-07-28 15:35:00,
2013-07-28 11:40:00,88.3,75.1,30.01,WSW,257,0.0,1.0,65,0.00,,,0.00,VWS V14.00,2013-07-28 15:40:00,
2013-07-28 11:46:00,89.0,75.2,30.01,WSW,241,0.0,1.0,64,0.00,,,0.00,VWS V14.00,2013-07-28 15:46:00,
2013-07-28 11:51:00,89.7,75.4,30.01,WSW,242,0.0,1.0,63,0.00,,,0.00,VWS V14.00,2013-07-28 15:51:00,
2013-07-28 11:56:00,89.6,75.8,30.01,SW,227,0.0,1.0,64,0.00,,,0.00,VWS V14.00,2013-07-28 15:56:00,
2013-07-28 12:00:00,88.8,74.6,30.01,NNW,333,0.0,1.0,63,0.00,,,0.00,VWS V14.00,2013-07-28 16:00:00,
2013-07-28 12:01:00,88.9,75.2,30.01,NNW,333,0.0,1.0,64,0.00,,,0.00,VWS V14.00,2013-07-28 16:01:00,
2013-07-28 12:06:00,88.4,74.7,30.01,NNW,333,0.0,0.0,64,0.00,,,0.00,VWS V14.00,2013-07-28 16:06:00,
2013-07-28 12:12:00,88.3,75.5,30.01,SSW,200,0.0,1.0,66,0.00,,,0.00,VWS V14.00,2013-07-28 16:12:00,
2013-07-28 12:17:00,88.8,76.4,30.01,SSW,199,0.0,1.0,67,0.00,,,0.00,VWS V14.00,2013-07-28 16:17:00,
2013-07-28 12:22:00,89.2,75.9,30.00,South,188,0.0,1.0,65,0.00,,,0.00,VWS V14.00,2013-07-28 16:22:00,
2013-07-28 12:27:00,89.2,75.0,30.00,East,96,0.0,1.0,63,0.00,,,0.00,VWS V14.00,2013-07-28 16:27:00,
2013-07-28 12:30:00,89.4,75.2,30.00,East,97,0.0,1.0,63,0.00,,,0.00,VWS V14.00,2013-07-28 16:30:00,
2013-07-28 12:32:00,89.4,75.2,30.00,East,97,0.0,0.0,63,0.00,,,0.00,VWS V14.00,2013-07-28 16:32:00,
2013-07-28 12:37:00,89.3,75.1,30.00,South,184,0.0,1.0,63,0.00,,,0.00,VWS V14.00,2013-07-28 16:37:00,
2013-07-28 12:42:00,89.6,75.3,30.01,South,186,0.0,1.0,63,0.00,,,0.00,VWS V14.00,2013-07-28 16:42:00,
2013-07-28 12:48:00,90.0,73.8,30.00,South,187,0.0,1.0,59,0.00,,,0.00,VWS V14.00,2013-07-28 16:48:00,
2013-07-28 12:53:00,90.8,75.5,30.00,SSW,206,0.0,1.0,61,0.00,,,0.00,VWS V14.00,2013-07-28 16:53:00,
2013-07-28 12:58:00,91.0,74.7,30.00,SSW,210,0.0,1.0,59,0.00,,,0.00,VWS V14.00,2013-07-28 16:58:00,
2013-07-28 13:00:00,91.0,74.2,30.00,SW,229,0.0,4.0,58,0.00,,,0.00,VWS V14.00,2013-07-28 17:00:00,
2013-07-28 13:03:00,90.8,74.5,30.00,SW,234,0.0,2.0,59,0.00,,,0.00,VWS V14.00,2013-07-28 17:03:00,
2013-07-28 13:09:00,90.5,73.7,30.00,SW,214,0.0,2.0,58,0.00,,,0.00,VWS V14.00,2013-07-28 17:09:00,
2013-07-28 13:14:00,90.0,74.8,30.00,SW,214,0.0,2.0,61,0.00,,,0.00,VWS V14.00,2013-07-28 17:14:00,
2013-07-28 13:19:00,89.6,73.9,30.00,SW,230,0.0,2.0,60,0.00,,,0.00,VWS V14.00,2013-07-28 17:19:00,
2013-07-28 13:24:00,90.1,75.3,30.00,SW,229,0.0,2.0,62,0.00,,,0.00,VWS V14.00,2013-07-28 17:24:00,
2013-07-28 13:29:00,91.3,75.0,30.00,SW,229,0.0,2.0,59,0.00,,,0.00,VWS V14.00,2013-07-28 17:29:00,
2013-07-28 13:30:00,91.6,74.2,30.00,SW,229,0.0,2.0,57,0.00,,,0.00,VWS V14.00,2013-07-28 17:30:00,
2013-07-28 13:34:00,91.6,74.2,30.00,SW,217,1.0,1.0,57,0.00,,,0.00,VWS V14.00,2013-07-28 17:34:00,
2013-07-28 13:40:00,90.8,75.0,30.00,South,185,0.0,1.0,60,0.00,,,0.00,VWS V14.00,2013-07-28 17:40:00,
2013-07-28 13:45:00,90.6,74.3,29.99,SSW,207,0.0,1.0,59,0.00,,,0.00,VWS V14.00,2013-07-28 17:45:00,
2013-07-28 13:50:00,91.3,73.9,29.99,SW,236,0.0,1.0,57,0.00,,,0.00,VWS V14.00,2013-07-28 17:50:00,
2013-07-28 13:55:00,91.4,75.1,29.99,SSW,210,0.0,1.0,59,0.00,,,0.00,VWS V14.00,2013-07-28 17:55:00,
2013-07-28 14:00:00,91.1,74.8,29.99,SSW,210,0.0,1.0,59,0.00,,,0.00,VWS V14.00,2013-07-28 18:00:00,
2013-07-28 14:05:00,90.8,74.5,29.99,SSW,211,0.0,0.0,59,0.00,,,0.00,VWS V14.00,2013-07-28 18:05:00,
2013-07-28 14:11:00,90.3,75.5,29.99,SSW,211,0.0,0.0,62,0.00,,,0.00,VWS V14.00,2013-07-28 18:11:00,
2013-07-28 14:16:00,89.8,74.6,29.99,SSW,211,0.0,0.0,61,0.00,,,0.00,VWS V14.00,2013-07-28 18:16:00,
2013-07-28 14:21:00,89.6,75.3,29.99,SSW,211,0.0,0.0,63,0.00,,,0.00,VWS V14.00,2013-07-28 18:21:00,
2013-07-28 14:26:00,90.0,73.8,29.98,SW,216,0.0,1.0,59,0.00,,,0.00,VWS V14.00,2013-07-28 18:26:00,
2013-07-28 14:30:00,90.6,74.3,29.98,NW,307,0.0,1.0,59,0.00,,,0.00,VWS V14.00,2013-07-28 18:30:00,
2013-07-28 14:31:00,90.5,74.2,29.98,NW,307,0.0,1.0,59,0.00,,,0.00,VWS V14.00,2013-07-28 18:31:00,
2013-07-28 14:36:00,90.7,74.9,29.98,NW,307,0.0,1.0,60,0.00,,,0.00,VWS V14.00,2013-07-28 18:36:00,
2013-07-28 14:41:00,89.9,74.7,29.98,NW,307,0.0,1.0,61,0.00,,,0.00,VWS V14.00,2013-07-28 18:41:00,
2013-07-28 14:47:00,89.5,72.3,29.98,NW,307,0.0,1.0,57,0.00,,,0.00,VWS V14.00,2013-07-28 18:47:00,
2013-07-28 14:52:00,90.1,73.8,29.98,South,188,0.0,3.0,59,0.00,,,0.00,VWS V14.00,2013-07-28 18:52:00,
2013-07-28 14:57:00,91.3,73.9,29.98,South,188,0.0,3.0,57,0.00,,,0.00,VWS V14.00,2013-07-28 18:57:00,
2013-07-28 15:00:00,92.0,74.6,29.98,SW,220,0.0,5.0,57,0.00,,,0.00,VWS V14.00,2013-07-28 19:00:00,
2013-07-28 15:02:00,92.1,74.2,29.98,SW,223,0.0,0.0,56,0.00,,,0.00,VWS V14.00,2013-07-28 19:02:00,
2013-07-28 15:07:00,91.9,72.9,29.98,South,186,0.0,0.0,54,0.00,,,0.00,VWS V14.00,2013-07-28 19:07:00,
2013-07-28 15:12:00,90.8,74.5,29.98,South,186,0.0,1.0,59,0.00,,,0.00,VWS V14.00,2013-07-28 19:12:00,
2013-07-28 15:18:00,89.6,73.9,29.98,NNW,338,0.0,1.0,60,0.00,,,0.00,VWS V14.00,2013-07-28 19:18:00,
2013-07-28 15:23:00,88.3,73.2,29.98,NW,319,0.0,1.0,61,0.00,,,0.00,VWS V14.00,2013-07-28 19:23:00,
2013-07-28 15:28:00,87.1,73.0,29.98,NW,319,0.0,1.0,63,0.00,,,0.00,VWS V14.00,2013-07-28 19:28:00,
2013-07-28 15:30:00,86.8,72.7,29.98,NW,319,0.0,1.0,63,0.00,,,0.00,VWS V14.00,2013-07-28 19:30:00,
2013-07-28 15:33:00,86.6,72.5,29.98,NW,319,0.0,0.0,63,0.00,,,0.00,VWS V14.00,2013-07-28 19:33:00,
2013-07-28 15:38:00,86.3,73.2,29.98,NW,319,0.0,0.0,65,0.00,,,0.00,VWS V14.00,2013-07-28 19:38:00,
2013-07-28 15:43:00,85.7,73.9,29.97,NW,319,0.0,0.0,68,0.00,,,0.00,VWS V14.00,2013-07-28 19:43:00,
2013-07-28 15:48:00,85.2,73.9,29.97,NW,319,0.0,0.0,69,0.00,,,0.00,VWS V14.00,2013-07-28 19:48:00,
2013-07-28 15:54:00,85.2,73.9,29.98,NW,319,0.0,0.0,69,0.00,,,0.00,VWS V14.00,2013-07-28 19:54:00,
2013-07-28 15:59:00,84.8,74.4,29.98,NW,319,0.0,1.0,71,0.00,,,0.00,VWS V14.00,2013-07-28 19:59:00,
2013-07-28 16:00:00,84.7,73.8,29.98,South,182,0.0,1.0,70,0.00,,,0.00,VWS V14.00,2013-07-28 20:00:00,
2013-07-28 16:04:00,84.8,74.8,29.98,South,181,0.0,0.0,72,0.00,,,0.00,VWS V14.00,2013-07-28 20:04:00,
2013-07-28 16:09:00,84.5,74.5,29.98,South,181,0.0,0.0,72,0.00,,,0.00,VWS V14.00,2013-07-28 20:09:00,
2013-07-28 16:14:00,83.6,72.8,29.99,NE,45,0.0,1.0,70,0.00,,,0.00,VWS V14.00,2013-07-28 20:14:00,
2013-07-28 16:19:00,82.5,72.6,30.00,ENE,68,0.0,4.0,72,0.00,,,0.00,VWS V14.00,2013-07-28 20:19:00,
2013-07-28 16:25:00,81.4,72.3,30.01,East,100,0.0,4.0,74,0.00,,,0.00,VWS V14.00,2013-07-28 20:25:00,
2013-07-28 16:30:00,80.5,72.6,30.02,ENE,67,0.0,10.0,77,0.00,,,0.00,VWS V14.00,2013-07-28 20:30:00,
2013-07-28 16:35:00,79.6,72.1,30.02,ENE,59,0.0,4.0,78,0.00,,,0.00,VWS V14.00,2013-07-28 20:35:00,
2013-07-28 16:40:00,78.7,71.3,30.02,ENE,57,0.0,4.0,78,0.00,,,0.00,VWS V14.00,2013-07-28 20:40:00,
2013-07-28 16:45:00,78.0,70.6,30.02,West,268,0.0,4.0,78,0.00,,,0.00,VWS V14.00,2013-07-28 20:45:00,
2013-07-28 16:50:00,77.7,70.3,30.02,NNW,342,0.0,4.0,78,0.00,,,0.00,VWS V14.00,2013-07-28 20:50:00,
2013-07-28 16:55:00,77.6,70.6,30.01,NE,34,0.0,4.0,79,0.00,,,0.00,VWS V14.00,2013-07-28 20:55:00,
2013-07-28 17:00:00,77.8,71.5,30.02,North,355,0.0,4.0,81,0.01,,,0.01,VWS V14.00,2013-07-28 21:00:00,
2013-07-28 17:06:00,77.4,72.2,30.02,North,355,0.0,0.0,84,0.02,,,0.02,VWS V14.00,2013-07-28 21:06:00,
2013-07-28 17:11:00,77.2,72.3,30.02,North,355,0.0,1.0,85,0.02,,,0.02,VWS V14.00,2013-07-28 21:11:00,
2013-07-28 17:16:00,77.1,72.9,30.02,North,355,0.0,1.0,87,0.02,,,0.02,VWS V14.00,2013-07-28 21:16:00,
2013-07-28 17:21:00,77.1,72.9,30.02,SSE,161,0.0,2.0,87,0.02,,,0.02,VWS V14.00,2013-07-28 21:21:00,
2013-07-28 17:27:00,77.0,72.8,30.02,WSW,242,0.0,4.0,87,0.02,,,0.02,VWS V14.00,2013-07-28 21:27:00,
2013-07-28 17:30:00,77.1,73.3,30.03,NW,311,0.0,4.0,88,0.02,,,0.02,VWS V14.00,2013-07-28 21:30:00,
2013-07-28 17:32:00,77.1,73.3,30.03,NW,311,0.0,4.0,88,0.02,,,0.02,VWS V14.00,2013-07-28 21:32:00,
2013-07-28 17:37:00,77.2,73.4,30.03,NW,311,0.0,1.0,88,0.02,,,0.02,VWS V14.00,2013-07-28 21:37:00,
2013-07-28 17:42:00,77.3,73.5,30.04,NW,311,0.0,1.0,88,0.02,,,0.02,VWS V14.00,2013-07-28 21:42:00,
2013-07-28 17:47:00,77.1,73.3,30.05,NW,310,0.0,1.0,88,0.02,,,0.02,VWS V14.00,2013-07-28 21:47:00,
2013-07-28 17:52:00,76.9,73.1,30.06,SSE,168,0.0,5.0,88,0.02,,,0.02,VWS V14.00,2013-07-28 21:52:00,
2013-07-28 17:57:00,76.8,73.0,30.05,South,180,0.0,5.0,88,0.02,,,0.02,VWS V14.00,2013-07-28 21:57:00,
2013-07-28 18:00:00,77.8,71.9,30.02,North,355,0.0,4.0,82,0.02,,,0.02,VWS V14.00,2013-07-28 22:00:00,
2013-07-28 18:02:00,76.8,73.3,30.05,SE,131,0.0,0.0,89,0.00,,,0.02,VWS V14.00,2013-07-28 22:02:00,
2013-07-28 18:07:00,76.6,72.8,30.05,SE,136,0.0,5.0,88,0.00,,,0.02,VWS V14.00,2013-07-28 22:07:00,
2013-07-28 18:12:00,76.4,72.6,30.05,ESE,105,0.0,5.0,88,0.00,,,0.02,VWS V14.00,2013-07-28 22:12:00,
2013-07-28 18:17:00,76.3,72.5,30.04,South,191,0.0,5.0,88,0.00,,,0.02,VWS V14.00,2013-07-28 22:17:00,
2013-07-28 18:22:00,76.2,72.1,30.04,SSE,167,0.0,5.0,87,0.00,,,0.02,VWS V14.00,2013-07-28 22:22:00,
2013-07-28 18:28:00,76.2,72.1,30.04,SW,231,0.0,5.0,87,0.00,,,0.02,VWS V14.00,2013-07-28 22:28:00,
2013-07-28 18:30:00,76.2,72.1,30.03,SW,230,0.0,5.0,87,0.00,,,0.02,VWS V14.00,2013-07-28 22:30:00,
2013-07-28 18:33:00,76.2,72.1,30.03,SW,230,0.0,0.0,87,0.00,,,0.02,VWS V14.00,2013-07-28 22:33:00,
2013-07-28 18:38:00,76.1,71.9,30.03,South,190,0.0,1.0,87,0.00,,,0.02,VWS V14.00,2013-07-28 22:38:00,
2013-07-28 18:43:00,76.1,71.6,30.02,South,190,0.0,1.0,86,0.00,,,0.02,VWS V14.00,2013-07-28 22:43:00,
2013-07-28 18:48:00,76.0,71.5,30.03,South,190,0.0,1.0,86,0.00,,,0.02,VWS V14.00,2013-07-28 22:48:00,
2013-07-28 18:53:00,75.9,71.4,30.02,South,190,0.0,1.0,86,0.00,,,0.02,VWS V14.00,2013-07-28 22:53:00,
2013-07-28 18:58:00,75.7,71.2,30.02,South,190,0.0,1.0,86,0.00,,,0.02,VWS V14.00,2013-07-28 22:58:00,
2013-07-28 19:00:00,75.8,71.3,30.02,South,190,0.0,1.0,86,0.00,,,0.02,VWS V14.00,2013-07-28 23:00:00,
2013-07-28 19:03:00,75.9,71.8,30.02,South,190,0.0,0.0,87,0.00,,,0.02,VWS V14.00,2013-07-28 23:03:00,
2013-07-28 19:09:00,76.0,71.9,30.01,South,190,0.0,0.0,87,0.00,,,0.02,VWS V14.00,2013-07-28 23:09:00,
2013-07-28 19:14:00,76.2,71.7,30.01,South,190,0.0,0.0,86,0.00,,,0.02,VWS V14.00,2013-07-28 23:14:00,
2013-07-28 19:19:00,76.2,71.7,30.01,South,190,0.0,0.0,86,0.00,,,0.02,VWS V14.00,2013-07-28 23:19:00,
2013-07-28 19:24:00,76.2,71.7,30.01,South,190,0.0,0.0,86,0.00,,,0.02,VWS V14.00,2013-07-28 23:24:00,
2013-07-28 19:29:00,76.4,72.2,30.01,South,190,0.0,0.0,87,0.00,,,0.02,VWS V14.00,2013-07-28 23:29:00,
2013-07-28 19:30:00,76.4,72.2,30.01,South,190,0.0,0.0,87,0.00,,,0.02,VWS V14.00,2013-07-28 23:30:00,
2013-07-28 20:00:00,76.4,72.2,30.01,South,190,0.0,0.0,87,0.00,,,0.02,VWS V14.00,2013-07-29 00:00:00,
2013-07-28 20:30:00,75.3,72.8,30.02,North,0,0.0,0.0,92,0.00,,,0.02,VWS V14.00,2013-07-29 00:30:00,
2013-07-28 21:00:00,75.0,72.8,30.03,North,0,0.0,0.0,93,0.00,,,0.02,VWS V14.00,2013-07-29 01:00:00,
2013-07-28 21:30:00,74.8,72.6,30.05,North,0,0.0,0.0,93,0.00,,,0.02,VWS V14.00,2013-07-29 01:30:00,
2013-07-28 22:00:00,74.7,72.9,30.06,North,0,0.0,0.0,94,0.00,,,0.02,VWS V14.00,2013-07-29 02:00:00,
2013-07-28 22:30:00,74.6,72.8,30.06,North,0,0.0,0.0,94,0.00,,,0.02,VWS V14.00,2013-07-29 02:30:00,
2013-07-28 23:00:00,74.5,72.7,30.06,North,0,0.0,0.0,94,0.00,,,0.02,VWS V14.00,2013-07-29 03:00:00,
2013-07-28 23:30:00,74.4,72.9,30.06,North,0,0.0,0.0,95,0.00,,,0.02,VWS V14.00,2013-07-29 03:30:00,